EW0791 Weather Reports


Display with metric or nautical units.
time (UTC)temp
F
wind
direction
speed
MPH
gust
MPH
rain 1hr
in
rain 24hr
in
rain mn
in
humidity
%
barometer
mb
20210728063348 66 32 0.0 0.0 0.00 0.44 0.02 96 1016.0
20210728061821 66 32 0.0 1.0 0.00 0.44 0.02 96 1015.8
20210728060348 66 25 0.0 1.0 0.00 0.44 0.02 96 1015.9
20210728054825 66 41 0.0 1.0 0.01 0.44 0.02 96 1015.8
20210728053326 66 359 0.0 1.0 0.02 0.44 0.02 96 1015.7
20210728051825 66 172 0.0 0.0 0.02 0.44 0.02 96 1015.9
20210728050326 66 172 0.0 0.0 0.02 0.44 0.02 96 1015.9
20210728044817 66 172 0.0 0.0 0.01 0.43 0.01 96 1016.0
20210728043344 66 171 0.0 0.0 0.00 0.42 0.00 96 1016.1
20210728041844 66 171 0.0 0.0 0.01 0.42 0.00 96 1015.8
20210728040346 66 171 0.0 0.0 0.01 0.42 0.00 96 1016.0
20210728034814 66 171 0.0 0.0 0.01 0.42 0.42 96 1015.9
20210728033340 66 170 0.0 0.0 0.01 0.42 0.42 96 1015.7
20210728031829 66 205 0.0 0.0 0.00 0.41 0.41 96 1016.0
20210728030339 66 204 0.0 0.0 0.00 0.41 0.41 96 1016.3
20210728024841 66 204 0.0 0.0 0.00 0.41 0.41 96 1016.4
20210728023327 66 204 0.0 0.0 0.00 0.41 0.41 96 1016.5
20210728021825 66 203 0.0 1.0 0.00 0.41 0.41 96 1016.6
20210728020328 67 200 1.0 2.0 0.00 0.41 0.41 96 1016.7
20210728014827 66 226 1.0 2.0 0.00 0.41 0.41 95 1016.7
20210728013327 66 195 0.0 0.0 0.01 0.41 0.41 95 1016.6
20210728011828 67 195 0.0 0.0 0.04 0.41 0.41 95 1016.4
20210728010328 67 188 0.0 1.0 0.08 0.41 0.41 95 1016.0
20210728004827 67 70 0.0 1.0 0.12 0.41 0.41 95 1015.7
20210728003335 67 70 0.0 1.0 0.19 0.40 0.40 94 1015.8
20210728001813 67 108 0.0 2.0 0.22 0.36 0.36 94 1015.8
20210728000339 67 103 1.0 2.0 0.26 0.33 0.33 94 1015.9
20210727234839 68 56 0.0 2.0 0.26 0.29 0.29 93 1015.8
20210727233339 68 10 0.0 1.0 0.20 0.21 0.21 92 1016.2
20210727231840 69 11 0.0 1.0 0.14 0.14 0.14 91 1016.0
20210727230339 70 357 0.0 3.0 0.07 0.07 0.07 89 1015.7
20210727224815 73 105 1.0 8.0 0.03 0.03 0.03 83 1015.1
20210727223339 78 300 5.0 12.0 0.01 0.01 0.01 72 1015.2
20210727221836 83 279 1.0 2.0 0.00 0.00 0.00 61 1013.5
20210727220338 84 191 1.0 2.0 0.00 0.00 0.00 54 1013.5
20210727214815 85 245 1.0 4.0 0.00 0.00 0.00 52 1013.3
20210727213344 86 205 3.0 6.0 0.00 0.00 0.00 49 1013.4
20210727211818 87 217 2.0 6.0 0.00 0.00 0.00 46 1013.4
20210727210316 88 188 2.0 4.0 0.00 0.00 0.00 43 1013.2
20210727204846 87 232 1.0 4.0 0.00 0.00 0.00 46 1013.3
20210727203344 88 197 1.0 5.0 0.00 0.00 0.00 43 1013.3
20210727201845 89 187 2.0 5.0 0.00 0.00 0.00 41 1013.3
20210727200317 89 243 2.0 4.0 0.00 0.00 0.00 42 1013.4
20210727194844 88 226 2.0 5.0 0.00 0.00 0.00 41 1013.6
20210727193316 88 203 1.0 5.0 0.00 0.00 0.00 41 1013.9
20210727191818 89 80 1.0 3.0 0.00 0.00 0.00 41 1013.9
20210727190315 89 357 1.0 3.0 0.00 0.00 0.00 43 1014.0
20210727184816 88 280 1.0 4.0 0.00 0.00 0.00 41 1014.2
20210727183347 88 200 1.0 5.0 0.00 0.00 0.00 42 1014.3
20210727181845 89 162 1.0 4.0 0.00 0.00 0.00 41 1014.4
20210727180338 89 239 3.0 6.0 0.00 0.00 0.00 42 1014.3
20210727174841 88 150 2.0 5.0 0.00 0.00 0.00 45 1014.4
20210727173317 88 285 2.0 6.0 0.00 0.00 0.00 46 1014.6
20210727171847 87 302 1.0 4.0 0.00 0.00 0.00 48 1014.6
20210727170323 87 90 1.0 3.0 0.00 0.00 0.00 53 1014.8
20210727164849 86 13 2.0 6.0 0.00 0.00 0.00 47 1015.0
20210727163325 86 35 2.0 5.0 0.00 0.00 0.00 51 1015.0
20210727161844 86 274 0.0 2.0 0.00 0.00 0.00 57 1015.1
20210727160347 85 232 1.0 3.0 0.00 0.00 0.00 56 1015.2
20210727154847 84 8 1.0 4.0 0.00 0.00 0.00 57 1015.3
20210727153323 84 302 1.0 3.0 0.00 0.00 0.00 57 1015.4
20210727151822 84 261 1.0 2.0 0.00 0.00 0.00 55 1015.6
20210727150328 83 116 1.0 3.0 0.00 0.00 0.00 58 1015.7
20210727144827 82 254 2.0 5.0 0.00 0.00 0.00 57 1015.6
20210727143329 83 178 0.0 4.0 0.00 0.00 0.00 57 1015.6
20210727141828 82 11 1.0 2.0 0.00 0.00 0.00 60 1015.5
20210727140339 80 116 1.0 3.0 0.00 0.00 0.00 60 1015.5
20210727134816 79 243 1.0 3.0 0.00 0.00 0.00 61 1015.6
20210727133342 79 143 1.0 3.0 0.00 0.00 0.00 62 1015.7
20210727131827 78 295 2.0 5.0 0.00 0.00 0.00 64 1015.7
20210727130332 77 150 0.0 2.0 0.00 0.00 0.00 69 1015.6
20210727124845 76 244 0.0 2.0 0.00 0.00 0.00 72 1015.7
20210727123322 74 295 1.0 3.0 0.00 0.00 0.00 73 1015.6
20210727121827 73 310 0.0 1.0 0.00 0.00 0.00 78 1015.6
20210727120335 72 226 0.0 1.0 0.00 0.00 0.00 80 1015.4
20210727114837 72 205 0.0 0.0 0.00 0.00 0.00 81 1015.4
20210727113339 70 184 0.0 0.0 0.00 0.00 0.00 85 1015.3
20210727111845 68 184 0.0 0.0 0.00 0.00 0.00 88 1015.5
20210727110335 66 184 0.0 0.0 0.00 0.00 0.00 91 1015.4
20210727104838 64 184 0.0 0.0 0.00 0.00 0.00 94 1015.4
20210727103344 63 184 0.0 0.0 0.00 0.00 0.00 95 1015.4
20210727101824 63 184 0.0 0.0 0.00 0.00 0.00 94 1015.5
20210727100327 63 184 0.0 0.0 0.00 0.00 0.00 95 1015.2
20210727094846 63 184 0.0 0.0 0.00 0.00 0.00 94 1015.0
20210727093322 63 184 0.0 0.0 0.00 0.00 0.00 94 1014.7
20210727091825 63 184 0.0 0.0 0.00 0.00 0.00 93 1014.7
20210727090314 64 184 0.0 1.0 0.00 0.00 0.00 93 1014.6
20210727084846 64 184 0.0 0.0 0.00 0.00 0.00 92 1014.5
20210727083321 64 206 0.0 0.0 0.00 0.00 0.00 92 1014.4
20210727081826 64 206 0.0 0.0 0.00 0.00 0.00 91 1014.3
20210727080315 65 206 0.0 1.0 0.00 0.00 0.00 90 1014.2
20210727074840 66 222 0.0 1.0 0.00 0.00 0.00 89 1014.3
20210727073343 66 224 0.0 0.0 0.00 0.00 0.00 89 1014.1
20210727071845 66 224 0.0 0.0 0.00 0.00 0.00 88 1014.2
20210727070321 66 224 0.0 1.0 0.00 0.00 0.00 88 1014.2